Wind_Speed
14 14 13 13 15 13 10 8 6 6 5 4 4 3 3 2 2 1 0 1 3 3 3 3 3 4 5 5 6 6 6 6 6 6 6 5 5 5 6 6 5 5 5 4 4 3 3 2 3
14 12 13 16 15 12 9 8 7 7 7 6 5 5 3 3 2 1 1 1 2 3 3 4 3 4 5 5 5 5 5 5 5 5 6 6 5 6 6 6 5 5 4 4 3 3 2 2 2
14 13 16 16 13 10 8 8 8 8 7 7 7 5 4 3 3 1 1 1 2 3 4 4 4 4 5 6 5 5 5 5 5 5 5 6 5 5 5 5 5 4 3 3 3 3 2 2 2
13 15 18 15 11 9 8 8 8 7 7 8 8 6 5 5 4 3 2 1 2 3 3 4 4 4 5 5 5 5 5 4 4 4 5 5 5 5 4 5 4 4 3 3 2 2 2 2 3
14 16 16 13 10 8 8 7 8 7 7 8 8 7 7 6 5 3 2 2 2 3 4 4 4 5 5 5 4 5 4 4 4 4 4 4 4 4 4 4 4 4 3 3 3 3 2 3 3
14 15 15 11 8 8 8 7 7 8 7 8 8 7 7 6 6 5 3 3 3 4 5 5 5 5 5 4 4 4 4 4 4 3 3 4 3 3 4 4 3 3 3 3 3 3 3 3 4
13 14 13 9 8 8 8 8 8 9 8 8 8 8 6 6 5 4 4 4 4 5 4 5 5 4 3 3 3 3 3 3 3 4 3 3 3 3 3 3 3 4 4 4 4 3 3 3 4
14 14 11 8 7 7 8 8 8 8 8 8 8 9 7 6 6 5 4 4 4 4 4 5 5 4 3 3 3 2 3 3 3 3 3 2 2 2 3 3 2 3 3 3 3 3 3 4 4
12 13 10 8 7 7 8 8 8 9 9 9 9 9 8 7 7 6 6 5 5 4 5 5 4 4 4 3 3 3 2 2 2 2 2 2 2 2 2 2 2 2 2 3 3 3 4 4 4
12 10 8 6 7 7 7 8 9 9 9 9 9 9 9 8 8 8 7 7 6 6 5 5 4 4 3 3 4 3 3 2 2 2 2 2 1 1 2 3 3 3 3 3 3 3 4 4 4
9 8 7 7 7 7 7 9 10 10 10 10 10 9 9 9 8 8 8 8 7 6 6 5 5 4 4 4 4 4 3 2 2 2 2 2 2 2 2 3 3 3 3 3 3 4 4 5 4
7 7 7 7 7 6 7 9 10 10 11 10 10 9 9 9 9 9 9 9 8 7 7 6 5 5 4 4 4 3 3 3 2 2 2 2 2 3 3 3 3 3 3 3 4 4 5 5 5
6 7 8 8 8 8 8 9 11 11 11 10 10 9 8 8 8 9 9 9 8 8 7 7 6 5 4 4 4 3 3 3 2 2 3 3 3 3 3 3 4 4 4 4 4 4 5 6 6
6 6 8 8 8 8 9 10 11 11 11 10 10 10 9 9 9 9 8 8 8 8 7 7 6 6 5 4 4 5 4 4 3 3 3 4 3 3 3 3 4 4 4 4 4 4 5 6 6
6 6 7 9 9 10 10 11 12 11 11 11 10 11 10 10 9 9 8 8 8 7 7 7 7 6 6 6 6 6 6 5 4 4 4 4 4 4 4 3 4 4 5 4 5 5 5 5 6
6 6 5 7 8 9 9 10 11 11 11 10 11 11 11 10 9 9 8 7 7 7 7 6 7 7 6 6 6 6 6 5 5 5 4 4 4 4 4 3 4 4 4 4 5 5 5 6 6
4 4 4 5 6 7 8 8 10 11 11 10 10 11 10 10 9 8 8 7 7 7 6 6 6 6 6 6 6 6 6 6 6 5 4 4 4 4 4 4 4 4 4 4 4 4 5 6 6
2 2 1 4 4 5 6 7 9 11 11 10 10 10 10 10 10 8 8 7 7 7 6 6 6 6 6 6 6 6 7 7 6 5 5 4 4 4 4 5 5 4 5 4 4 4 5 6 6
3 1 0 1 4 4 4 6 8 10 10 10 10 11 11 10 10 9 8 7 6 6 6 6 6 5 5 6 5 6 6 6 6 6 5 4 5 4 4 4 4 4 5 5 4 5 6 6 6
5 3 1 2 4 4 4 5 7 10 10 9 9 10 10 9 9 9 8 7 6 5 5 5 5 5 5 5 5 5 5 5 5 5 5 5 5 4 4 4 4 4 5 5 5 6 6 7 7
4 4 2 0 2 4 4 4 5 8 9 9 9 9 9 9 9 8 7 6 5 5 5 5 5 5 4 4 4 4 4 5 5 5 5 5 6 6 6 6 6 5 5 5 6 7 7 7 8
6 5 4 2 1 4 5 6 6 7 7 9 9 8 8 8 8 8 7 7 5 4 4 4 4 4 3 4 4 4 4 5 5 5 5 5 6 6 6 6 6 6 6 6 7 8 8 8 9
8 7 6 6 3 2 5 7 7 8 8 9 9 7 6 7 8 8 7 6 5 4 4 5 4 4 3 3 4 5 5 5 5 5 5 5 5 6 6 6 6 6 7 7 7 8 8 9 9
8 7 6 5 5 5 4 6 7 7 8 10 10 8 6 5 6 7 7 7 6 4 4 5 5 4 3 4 4 5 5 5 5 5 5 6 6 6 6 5 6 6 6 7 7 8 8 9 9
10 7 6 5 6 6 4 7 9 9 8 10 11 9 8 7 7 6 7 7 6 6 6 6 6 5 4 4 4 5 5 5 5 5 6 6 6 6 6 6 6 6 7 7 8 8 9 9 10
11 9 8 8 8 6 6 9 9 10 9 9 10 10 9 8 8 7 7 8 7 7 6 6 6 5 5 5 6 6 6 7 7 7 7 7 8 8 7 7 7 7 7 8 8 8 9 10 11
13 13 11 11 10 9 8 9 11 10 11 10 9 10 10 9 9 9 8 8 8 8 7 6 6 6 7 7 7 7 7 7 7 7 7 8 9 9 9 8 9 9 9 9 9 10 11 11 11
16 13 12 11 11 10 9 11 12 11 11 12 12 11 12 11 10 11 10 10 9 9 9 8 8 8 8 8 8 8 8 8 8 8 8 9 10 10 9 10 10 10 10 10 10 11 12 12 13
16 16 15 14 13 12 12 12 12 12 12 12 12 12 12 13 12 11 11 11 11 11 11 10 9 9 9 9 10 10 10 10 9 9 10 10 10 10 10 11 11 12 12 12 12 12 13 14 14
18 18 16 15 15 13 14 15 12 13 12 14 13 14 14 14 14 13 13 13 13 13 12 12 11 11 11 11 11 11 11 11 11 11 12 12 11 11 11 12 12 13 13 13 13 14 14 15 16
Wind_Direction
81 79 75 71 62 56 45 40 28 32 29 27 20 33 39 18 331 317 179 198 202 190 194 184 170 158 146 146 149 147 154 153 149 150 146 144 143 141 139 137 137 132 122 105 94 82 79 62 48
81 81 73 64 55 44 33 29 22 27 23 25 26 29 32 16 356 346 344 213 210 190 187 171 157 157 159 154 148 143 150 155 147 149 146 139 137 141 142 140 129 125 115 102 88 73 67 52 36
84 78 71 61 48 30 21 29 29 26 25 28 32 31 27 14 6 22 72 188 193 172 169 161 152 154 154 152 148 145 147 157 151 148 146 138 138 139 133 131 122 122 115 101 85 61 52 40 35
84 75 69 59 43 28 25 27 26 24 27 31 30 27 27 21 21 24 83 135 150 144 149 156 153 154 154 152 150 150 146 155 154 150 145 133 135 141 129 129 123 123 119 102 85 64 61 57 50
81 73 71 62 34 28 30 21 20 23 20 28 30 29 30 29 32 36 89 117 134 134 128 137 142 147 149 142 139 143 145 155 157 149 143 135 137 131 136 136 132 128 114 97 77 62 52 56 39
71 66 61 50 26 27 27 27 21 23 22 26 32 34 37 37 41 54 89 109 121 130 128 134 138 140 137 133 134 138 143 152 154 149 149 143 132 123 125 127 125 115 97 75 62 48 37 35 36
65 70 65 49 24 23 22 24 23 26 22 25 30 33 43 46 45 54 75 87 107 120 123 123 128 133 137 132 140 142 143 152 150 147 148 144 126 111 104 107 101 89 81 71 59 43 33 26 32
68 70 59 47 30 28 28 25 25 29 28 31 31 39 45 50 52 54 69 88 97 110 106 113 120 122 119 124 128 134 135 150 152 145 150 146 130 109 100 102 95 83 78 68 50 36 28 20 18
66 65 54 37 34 40 33 27 32 36 35 33 33 39 48 54 56 58 65 78 89 98 100 105 107 107 109 110 107 98 111 160 166 150 146 140 128 120 104 110 98 77 72 58 41 41 30 19 11
60 60 51 42 39 43 38 34 32 38 37 35 38 41 50 55 61 62 63 67 78 90 97 98 103 104 93 85 88 85 88 123 164 152 123 111 110 100 96 103 93 72 55 46 38 37 35 24 24
57 55 46 42 43 42 40 36 34 35 36 35 41 45 51 57 61 66 65 71 77 83 91 90 90 96 96 85 89 87 82 99 113 124 113 103 101 98 88 89 78 65 55 40 28 28 32 30 25
55 51 45 40 42 44 40 40 39 33 31 31 40 52 54 58 58 62 67 71 78 83 87 83 83 83 91 85 92 84 74 86 96 97 95 87 95 102 95 81 59 50 46 40 33 28 32 37 32
57 53 47 44 40 42 40 39 37 34 31 31 37 44 52 52 58 60 65 68 74 82 83 77 74 71 80 85 82 70 71 81 93 90 74 74 91 103 94 65 57 50 43 40 34 31 39 41 33
72 58 41 36 26 31 34 37 33 32 35 33 39 44 49 53 58 59 63 66 66 69 69 70 70 63 69 75 68 58 65 70 79 82 84 90 92 89 84 68 54 47 40 35 35 30 36 34 29
84 72 40 29 27 26 36 33 30 31 31 34 40 43 42 45 51 55 57 61 64 63 61 62 63 62 65 64 61 60 66 71 76 78 85 87 78 82 82 68 61 47 35 35 37 29 28 20 18
68 65 47 25 17 18 29 23 23 25 26 31 36 39 39 41 45 49 53 56 60 62 62 62 63 63 63 60 57 58 63 64 68 71 72 70 68 69 65 59 49 34 31 35 35 23 19 16 11
48 54 39 4 4 14 21 19 20 20 25 28 34 35 36 38 40 43 51 56 57 58 59 62 64 64 61 57 56 56 58 67 69 66 62 61 61 59 49 42 39 30 26 28 30 24 14 9 9
99 84 16 333 352 13 13 14 15 22 25 25 28 31 33 35 38 40 42 49 53 55 58 62 62 58 51 50 56 58 56 62 65 61 61 62 57 53 47 41 40 37 29 28 14 5 0 1 2
170 144 252 345 344 7 12 2 6 15 22 21 21 28 32 34 36 37 38 45 51 51 54 58 56 48 42 46 53 56 55 55 57 56 53 50 43 45 41 34 31 24 19 19 4 352 353 351 352
191 163 315 5 349 358 13 6 356 8 13 16 16 20 26 29 32 33 34 37 43 47 45 45 47 44 42 44 49 50 51 49 49 49 48 43 34 31 25 19 14 10 14 7 358 353 353 359 355
189 182 186 50 350 338 342 332 341 353 6 7 11 11 16 21 25 28 29 29 34 37 36 30 29 26 31 33 38 36 37 39 44 44 42 38 35 33 29 28 25 22 16 13 10 5 1 358 355
219 205 185 198 291 333 329 318 310 331 348 358 360 1 6 10 13 16 20 22 24 23 19 14 15 12 26 28 25 25 28 30 34 35 33 34 35 32 26 25 26 24 18 13 11 11 10 5 1
216 219 204 201 217 288 312 305 309 316 328 338 344 344 355 0 359 2 9 10 8 11 17 11 0 2 16 16 12 13 17 22 26 26 24 24 22 22 19 19 16 16 13 9 5 3 2 1 360
218 215 213 227 237 243 264 291 297 298 313 321 332 336 332 347 351 351 356 358 356 355 359 356 344 345 349 352 353 356 359 3 9 10 7 3 1 4 3 6 6 4 2 358 353 351 349 349 350
223 225 242 245 237 247 260 274 276 288 296 307 317 329 332 338 341 342 344 345 348 346 339 334 336 329 326 328 331 335 338 341 347 346 345 345 346 347 347 347 347 346 347 347 344 343 344 344 343
225 225 240 256 262 264 248 259 271 289 293 302 309 316 320 325 331 332 332 334 336 339 337 331 329 323 315 312 309 312 316 324 329 329 329 329 332 334 334 333 332 332 331 333 334 336 337 337 337
224 227 235 251 263 260 251 251 266 276 294 302 300 302 311 314 318 321 323 321 322 323 325 325 324 314 307 308 308 306 307 310 313 318 320 319 320 324 325 325 324 324 322 323 326 326 328 330 331
223 223 229 235 248 254 241 249 252 267 282 291 291 295 304 306 305 310 313 312 309 311 313 313 312 310 303 302 304 302 300 300 303 307 312 313 312 315 317 316 316 315 313 310 315 317 319 322 324
231 228 226 225 237 249 255 254 255 265 277 281 281 287 294 300 303 306 306 304 301 304 303 301 302 303 301 300 301 300 299 298 300 300 303 308 308 308 308 311 310 311 312 311 311 310 312 315 317
232 234 232 235 238 241 255 266 263 267 269 270 272 279 286 291 295 298 297 299 299 297 296 297 299 299 299 299 300 300 300 299 295 294 297 299 302 304 303 306 309 309 308 308 309 311 311 312 314
Height
5889 5888 5888 5888 5887 5888 5887 5887 5886 5885 5884 5883 5881 5880 5880 5879 5880 5881 5878 5877 5877 5878 5879 5879 5880 5880 5881 5882 5882 5883 5884 5884 5885 5886 5886 5887 5888 5888 5889 5889 5890 5890 5891 5891 5891 5892 5892 5892 5892
5891 5892 5890 5889 5890 5890 5890 5889 5888 5887 5885 5884 5883 5882 5881 5880 5879 5879 5878 5878 5878 5879 5879 5880 5881 5881 5882 5883 5883 5884 5885 5886 5886 5887 5887 5888 5889 5889 5889 5890 5891 5891 5892 5892 5892 5893 5893 5892 5892
5894 5893 5891 5892 5894 5893 5893 5891 5890 5888 5887 5886 5885 5883 5882 5881 5880 5879 5878 5878 5878 5879 5879 5880 5881 5882 5883 5883 5884 5885 5886 5886 5887 5888 5889 5889 5890 5890 5891 5891 5892 5892 5893 5893 5893 5893 5893 5893 5893
5896 5893 5894 5897 5897 5896 5895 5893 5892 5890 5889 5887 5886 5885 5883 5882 5881 5880 5879 5879 5879 5880 5880 5881 5882 5883 5884 5884 5885 5886 5887 5887 5888 5889 5890 5890 5891 5891 5892 5892 5892 5893 5893 5894 5894 5894 5894 5894 5893
5897 5896 5897 5899 5899 5898 5897 5895 5893 5892 5890 5889 5888 5886 5884 5883 5881 5880 5880 5880 5880 5881 5881 5882 5883 5883 5884 5885 5886 5887 5888 5888 5889 5890 5891 5891 5891 5892 5892 5893 5893 5894 5894 5894 5894 5894 5894 5894 5894
5898 5898 5900 5902 5902 5900 5899 5897 5895 5894 5892 5891 5889 5888 5886 5884 5883 5882 5881 5881 5881 5882 5883 5883 5884 5885 5885 5886 5887 5888 5888 5889 5890 5891 5891 5892 5892 5893 5893 5894 5894 5894 5895 5895 5895 5895 5895 5894 5894
5901 5902 5904 5905 5904 5903 5901 5899 5897 5896 5894 5893 5891 5889 5887 5886 5885 5883 5883 5883 5883 5883 5884 5884 5885 5886 5887 5887 5888 5889 5889 5890 5891 5891 5892 5893 5893 5894 5894 5894 5895 5895 5895 5896 5896 5896 5895 5895 5894
5906 5907 5907 5908 5906 5905 5903 5901 5899 5898 5896 5894 5892 5891 5889 5887 5886 5885 5884 5884 5884 5884 5885 5886 5886 5887 5887 5888 5889 5890 5890 5891 5891 5892 5893 5893 5894 5895 5895 5895 5896 5896 5896 5896 5896 5896 5896 5895 5895
5909 5911 5911 5910 5908 5907 5905 5903 5902 5900 5898 5896 5894 5892 5891 5889 5888 5887 5886 5885 5885 5886 5886 5887 5887 5888 5889 5889 5890 5891 5891 5892 5892 5893 5894 5894 5895 5895 5896 5896 5897 5897 5897 5897 5897 5897 5896 5895 5895
5912 5913 5913 5912 5911 5909 5907 5906 5904 5902 5900 5898 5896 5894 5892 5891 5890 5889 5888 5887 5887 5887 5888 5888 5889 5889 5890 5891 5891 5892 5892 5892 5893 5894 5894 5895 5896 5896 5896 5897 5897 5897 5897 5897 5897 5897 5896 5896 5895
5915 5915 5915 5914 5912 5911 5909 5908 5906 5904 5903 5901 5899 5897 5895 5894 5893 5892 5891 5890 5889 5889 5889 5890 5891 5891 5892 5893 5893 5893 5893 5893 5894 5895 5895 5896 5897 5897 5897 5898 5898 5898 5898 5898 5898 5897 5897 5896 5896
5917 5917 5916 5915 5914 5913 5911 5909 5908 5907 5905 5903 5901 5899 5898 5897 5896 5895 5894 5893 5892 5892 5892 5893 5893 5893 5894 5894 5894 5895 5895 5895 5895 5896 5896 5897 5897 5898 5898 5899 5899 5899 5899 5899 5898 5898 5897 5897 5896
5919 5919 5918 5917 5916 5915 5913 5911 5910 5908 5907 5905 5904 5902 5901 5899 5898 5897 5896 5895 5895 5895 5895 5895 5895 5895 5895 5896 5896 5896 5896 5896 5896 5897 5897 5897 5898 5899 5899 5900 5900 5900 5900 5899 5899 5898 5898 5897 5897
5921 5920 5920 5919 5917 5916 5914 5913 5912 5910 5909 5908 5906 5905 5903 5902 5901 5900 5899 5899 5898 5898 5898 5898 5898 5898 5898 5898 5898 5898 5897 5897 5897 5898 5898 5898 5899 5900 5900 5900 5901 5900 5900 5900 5900 5899 5898 5898 5897
5920 5921 5922 5921 5920 5918 5917 5916 5915 5913 5912 5910 5908 5907 5906 5905 5903 5903 5902 5901 5901 5901 5901 5901 5900 5900 5900 5900 5900 5899 5899 5899 5899 5899 5899 5899 5900 5901 5901 5901 5901 5902 5901 5901 5900 5900 5899 5899 5898
5921 5922 5923 5923 5922 5921 5920 5918 5917 5915 5914 5912 5911 5909 5908 5907 5906 5905 5904 5904 5904 5903 5903 5903 5903 5902 5902 5902 5902 5901 5901 5901 5901 5900 5900 5901 5901 5902 5902 5902 5902 5902 5902 5902 5901 5900 5900 5899 5899
5922 5923 5925 5924 5924 5923 5922 5921 5919 5917 5916 5914 5913 5911 5910 5909 5908 5907 5907 5906 5906 5906 5905 5905 5905 5905 5904 5904 5904 5903 5903 5902 5902 5902 5902 5902 5903 5903 5903 5903 5903 5902 5902 5902 5902 5901 5901 5900 5899
5925 5926 5927 5926 5925 5925 5924 5923 5921 5919 5918 5916 5915 5913 5912 5911 5910 5909 5908 5908 5908 5908 5907 5907 5907 5907 5906 5906 5906 5905 5905 5904 5904 5904 5904 5904 5904 5904 5904 5904 5904 5904 5904 5903 5902 5902 5901 5901 5900
5924 5926 5927 5927 5926 5926 5925 5924 5923 5921 5919 5918 5917 5915 5914 5913 5912 5911 5910 5910 5910 5910 5909 5909 5909 5909 5908 5908 5908 5907 5907 5906 5906 5906 5905 5905 5905 5905 5905 5905 5905 5904 5904 5904 5903 5902 5902 5901 5900
5925 5926 5928 5928 5927 5926 5926 5925 5923 5922 5921 5920 5919 5917 5916 5915 5914 5913 5912 5912 5912 5911 5911 5911 5911 5910 5910 5910 5909 5909 5908 5908 5908 5907 5907 5906 5906 5906 5906 5906 5905 5905 5905 5904 5904 5903 5902 5901 5900
5925 5926 5927 5928 5928 5927 5927 5926 5925 5923 5923 5921 5920 5919 5917 5916 5915 5914 5914 5913 5913 5913 5912 5912 5912 5912 5911 5911 5911 5910 5910 5909 5909 5908 5908 5908 5907 5907 5907 5906 5906 5906 5905 5905 5904 5903 5902 5901 5900
5925 5926 5927 5928 5928 5928 5929 5927 5925 5924 5922 5922 5921 5920 5919 5917 5916 5916 5915 5914 5914 5914 5913 5913 5913 5912 5912 5912 5912 5911 5911 5910 5910 5909 5909 5909 5908 5908 5908 5907 5907 5906 5906 5905 5905 5904 5903 5902 5900
5924 5925 5926 5926 5927 5929 5929 5928 5926 5924 5923 5923 5922 5921 5919 5919 5918 5917 5916 5915 5915 5914 5914 5914 5914 5913 5913 5913 5912 5912 5912 5911 5911 5911 5910 5910 5909 5909 5909 5908 5907 5907 5906 5905 5904 5904 5903 5902 5900
5923 5924 5925 5926 5927 5928 5929 5929 5926 5925 5924 5923 5922 5921 5919 5918 5919 5918 5917 5916 5915 5915 5915 5915 5914 5914 5913 5913 5913 5912 5912 5912 5912 5911 5911 5910 5910 5909 5909 5908 5908 5907 5906 5905 5904 5903 5902 5901 5900
5922 5924 5924 5925 5926 5927 5928 5928 5926 5924 5925 5924 5922 5921 5919 5918 5919 5918 5917 5916 5916 5915 5915 5914 5914 5914 5914 5913 5913 5913 5912 5912 5912 5911 5911 5910 5910 5909 5909 5908 5907 5907 5906 5905 5904 5903 5902 5901 5900
5920 5922 5924 5925 5925 5927 5927 5927 5926 5925 5924 5923 5922 5921 5920 5919 5918 5918 5917 5916 5916 5915 5915 5914 5914 5914 5913 5913 5913 5913 5912 5912 5911 5911 5910 5910 5909 5909 5908 5908 5907 5906 5905 5904 5903 5902 5901 5900 5899
5917 5919 5922 5924 5924 5925 5925 5925 5924 5924 5923 5922 5922 5921 5919 5919 5918 5917 5917 5916 5915 5915 5914 5914 5913 5913 5913 5913 5912 5912 5911 5911 5911 5910 5909 5909 5908 5908 5907 5906 5906 5905 5904 5903 5902 5901 5900 5899 5897
5914 5916 5919 5921 5921 5922 5923 5923 5922 5922 5922 5921 5920 5919 5918 5918 5917 5916 5916 5915 5914 5913 5913 5913 5913 5912 5912 5912 5911 5911 5910 5910 5909 5909 5908 5907 5907 5906 5905 5905 5904 5903 5902 5901 5900 5899 5898 5897 5895
5912 5914 5915 5917 5918 5920 5919 5920 5918 5920 5920 5920 5918 5917 5917 5917 5915 5915 5914 5914 5913 5912 5912 5912 5911 5911 5910 5910 5910 5909 5909 5908 5907 5907 5906 5906 5905 5904 5904 5903 5902 5901 5900 5899 5898 5897 5896 5894 5893
5908 5910 5913 5915 5915 5916 5917 5919 5916 5918 5916 5916 5916 5915 5915 5914 5914 5913 5912 5911 5911 5910 5910 5910 5909 5909 5908 5908 5908 5907 5907 5906 5906 5905 5904 5903 5903 5902 5901 5900 5899 5898 5897 5896 5895 5894 5893 5891 5890